{"data":{"norad_id":62216,"intl_designator":"2024-230A","name":"COSMOS 2580","alt_names":[],"object_type":"PAYLOAD","status":"ACTIVE","operator":null,"country":"CIS","launch_date":"2024-12-04","launch_site_code":"PLMSC","launch_vehicle":null,"mission":null,"orbit_class":"UNKNOWN","rcs_meters":null,"size_class":null,"mass_kg":null,"dimensions":null,"purposes":[],"wikipedia_slug":null,"has_3d_model":false,"image_url":null,"decayed_at":null,"tle_current":{"epoch":"2026-05-25T04:14:56.136768Z","epoch_age_seconds":59774,"freshness":"FRESH","line1":"1 62216U 24230A   26145.17703862 -.00000024  00000+0  37222-4 0  9996","line2":"2 62216  67.1468 106.7733 0006539 264.5653  95.4686 13.96671443 74926","mean_motion":13.96671443,"eccentricity":0.0006539,"inclination_deg":67.1468,"raan_deg":106.7733,"arg_perigee_deg":264.5653,"mean_anomaly_deg":95.4686,"bstar":3.7222e-5,"rev_number":7492,"period_min":103.10227270824,"perigee_km":900.58156719166,"apogee_km":910.10690395154,"semimajor_km":7283.4812355716,"source":"CELESTRAK","updated_at":"2026-05-25T13:38:02.858840Z"}}}